#timestamp,LO_Frequency,Hit,StdDev 
1542398415.2,286047002.1,N
1542398435.0,286047002.7,N
1542398435.9,286047002.7,N
1542398455.8,286047004.0,N
1542398475.6,286047002.6,N
1542398495.4,286047002.7,N
1542398515.3,286047002.0,N
1542398535.1,286047001.5,N
1542398555.8,286047002.2,N
1542398575.7,286047000.8,N
1542398595.5,286047002.6,N
1542398615.4,286047001.7,N
1542398635.2,286047002.5,N
1542398655.0,286047011.9,Y
1542398655.9,286047001.9,P
1542398675.8,286046998.7,P
1542398695.6,286047000.0,N
1542398715.5,286047000.1,N
1542398735.3,286047000.1,N
1542398755.1,286047002.8,N
1542398775.9,286047000.1,N
1542398795.7,286047002.2,N
1542398815.5,286047000.4,N
1542398835.4,286047002.4,N
1542398855.2,286047001.8,N
1542398875.1,286047004.3,Y
1542398876.0,286047004.3,P
1542398895.8,286047002.4,N
1542398915.6,286046999.8,N
1542398935.5,286047002.4,N
1542398955.3,286047003.5,N
1542398975.2,286047005.4,Y
1542398995.9,286047002.6,P
1542399015.7,286047001.9,P
1542399035.6,286047003.5,P
1542399055.4,286047003.6,Y
1542399075.2,286047000.9,P
1542399095.1,286047000.4,N
1542399096.0,286047000.4,N
1542399115.8,286047002.5,N
1542399135.7,286046999.7,N
1542399155.5,286047000.1,N
1542399175.3,286047000.3,N
1542399195.2,286046999.7,N
1542399215.0,286046999.9,N
1542399215.9,286046999.9,N
1542399235.8,286046999.9,N
1542399255.6,286047000.6,N
1542399275.4,286047002.6,N
1542399295.3,286047001.3,N
1542399315.1,286047003.6,Y
1542399335.8,286047001.4,P
1542399355.7,286047004.0,P
1542399375.5,286047004.0,N
1542399395.4,286047002.2,N
1542399415.2,286047002.0,N
1542399435.0,286047002.6,N
1542399435.9,286047002.6,N
1542399455.8,286047004.3,Y
1542399475.6,286047001.5,P
1542399495.5,286047002.4,P
1542399515.3,286047000.0,N
1542399535.1,286047002.4,N
1542399555.9,286046999.9,N
1542399575.7,286047000.5,N
1542399595.5,286046998.2,N
1542399615.4,286046999.4,N
1542399635.2,286046998.9,N
1542399655.1,286046998.3,N
1542399656.0,286046998.3,N
1542399675.8,286046999.5,N
1542399695.6,286046999.5,N
1542399715.5,286047000.8,N
1542399735.3,286047000.4,N
1542399755.1,286047002.7,N
1542399775.9,286047002.7,N
1542399795.7,286047000.3,N
1542399815.6,286047000.4,N
1542399835.4,286047002.7,N
1542399855.2,286047002.6,N
1542399875.1,286047001.8,N
1542399876.0,286047001.8,N
1542399895.8,286047002.4,N
1542399915.6,286047002.7,N
1542399935.5,286047002.7,N
1542399955.3,286047002.3,N
1542399975.2,286047000.4,N
1542399995.9,286047002.6,N
1542400015.7,286047004.3,N
1542400035.6,286047004.1,N
1542400055.4,286047003.2,N
1542400075.3,286047001.7,N
1542400095.1,286047002.2,N
1542400096.0,286047002.2,N
1542400115.8,286047001.8,N
1542400135.7,286047001.3,N
1542400155.5,286047001.5,N
1542400175.3,286047003.9,N
1542400195.2,286047003.1,N
1542400215.0,286047003.4,N
1542400215.9,286047003.4,N
1542400235.8,286047005.0,Y
1542400255.6,286047002.6,P
1542400275.4,286047002.4,P
1542400295.3,286047000.5,N
1542400315.1,286047000.7,N
1542400335.9,286046998.2,N
1542400355.7,286047000.7,N
1542400375.5,286047000.4,N
1542400395.4,286047002.6,N
1542400415.2,286047000.9,N
1542400435.0,286047002.6,N
1542400435.9,286047002.6,N
1542400455.8,286047000.0,N
1542400475.6,286047000.2,N
1542400495.5,286047001.1,N
1542400515.3,286047000.5,N
1542400535.1,286046998.2,N
1542400555.9,286046998.1,N
1542400575.7,286046998.7,N
1542400595.5,286046998.3,N
1542400615.4,286046998.9,N
1542400635.2,286046998.2,N
1542400655.1,286046998.8,N
1542400656.0,286046998.8,N
1542400675.8,286046998.4,N
1542400695.6,286047000.8,N
1542400715.5,286046998.4,N
1542400735.3,286046997.5,N
1542400755.1,286046998.0,N
1542400775.9,286046997.1,N
1542400795.7,286046995.7,N
1542400815.6,286046997.3,N
1542400835.4,286046997.7,N
1542400855.2,286046995.4,N
1542400875.1,286046995.3,N
1542400876.0,286046995.3,N
1542400895.8,286046995.8,N
1542400915.7,286046996.0,N
1542400935.5,286046997.5,N
1542400955.3,286046995.4,N
1542400975.2,286046994.9,N
1542400995.0,286046996.1,N
1542400995.9,286046996.1,N
1542401015.7,286046994.7,Y
1542401035.6,286046995.2,P
1542401055.4,286046993.9,P
1542401075.3,286046993.7,P
1542401095.1,286046995.2,Y
1542401115.8,286047001.2,P
1542401135.7,286046998.2,N
1542401155.5,286046998.4,N
1542401175.4,286046998.2,N
1542401195.2,286047000.5,N
1542401215.0,286046998.1,N
1542401215.9,286046998.1,N
1542401235.8,286046997.0,N
1542401255.6,286046997.0,N
1542401275.4,286046997.0,N
1542401295.3,286046996.6,N
1542401315.1,286046996.8,N
1542401335.9,286046997.4,N
1542401355.7,286046995.3,Y
1542401375.5,286046998.9,P
1542401395.4,286046996.9,P
1542401415.2,286046997.1,P
1542401435.1,286046996.8,Y
1542401436.0,286046996.8,P
1542401455.8,286047000.8,N
1542401475.6,286047001.0,N
1542401495.5,286046998.3,N
1542401515.3,286047001.2,N
1542401535.1,286046999.2,N
1542401555.9,286046999.3,N
1542401575.7,286046999.5,N
1542401595.6,286046999.1,N
1542401615.4,286046999.2,N
1542401635.2,286046998.8,N
1542401655.1,286046999.5,N
1542401656.0,286046999.5,N
1542401675.8,286046999.1,N
1542401695.7,286046996.6,Y
1542401715.5,286046996.5,P
1542401735.3,286046999.0,N
1542401755.2,286046998.4,N
1542401775.0,286047000.7,N
1542401775.9,286047000.7,N
1542401795.7,286046998.1,N
1542401815.6,286047001.1,N
1542401835.4,286047000.9,N
1542401855.3,286047000.3,N
1542401875.1,286047001.2,N
1542401895.8,286046997.0,N
1542401915.7,286046997.3,N
1542401935.5,286046997.7,N
1542401955.4,286046996.7,N
1542401975.2,286046999.4,N
1542401995.0,286046997.1,N
1542401995.9,286046997.1,N
